Regional Weather Roundup
Issued by NWS

Home | Current Version | Previous Version | Graphics & Text | Print | Product List | Glossary On
Versions: 1 2 3 4 5 6 7 8 9 10 11 12 13 14 15 16 17 18 19 20 21 22 23 24 25 26 27 28
000
ASUS45 KTFX 270910
RWRMT
MONTANA REGIONAL WEATHER ROUNDUP
NATIONAL WEATHER SERVICE GREAT FALLS MT
300 AM MDT THU APR 27 2017

NOTE: "FAIR" INDICATES FEW OR NO CLOUDS BELOW 12000 FEET WITH NO
SIGNIFICANT WEATHER AND/OR OBSTRUCTIONS TO VISIBILITY.

MTZ001>007-043-271000-
WEST OF THE DIVIDE

CITY           SKY/WX    TMP DP  RH WIND       PRES   REMARKS
KALISPELL      LGT RAIN  40 N/A N/A S15       29.66R
MISSOULA       CLOUDY    42  36  79 E5        29.72F
BUTTE          LGT SNOW  34  31  88 NW10      29.65S FOG     WCI  26
MULLAN PASS    CLOUDY    28  28 100 VRB5      29.68S FOG
ANACONDA         N/A     37  27  65 W6        29.67S
DEER LODGE       N/A     36  30  80 N7        29.69S WCI  30
EUREKA           N/A     41  37  87 SE7       29.64S
HAMILTON         N/A     43  27  52 SW8       29.73R
LIBBY            N/A     39  39 100 CALM      29.67R
PLAINS           N/A     42  35  76 CALM      29.73
$$

MTZ008-052>055-271000-
SOUTHWEST MONTANA

CITY           SKY/WX    TMP DP  RH WIND       PRES   REMARKS
BOZEMAN        LGT RAIN  36  34  92 W16       29.63R WCI  26
DILLON         LGT SNOW  33  31  92 S9        29.65R VSB 1   WCI  25
W YELLOWSTONE  CLOUDY    32  32 100 CALM      29.59F
THREE FORKS      N/A     37 -64   1 CALM      29.66F
TWIN BRIDGES     N/A     40  28  62 N7        29.67
$$

MTZ009-010-012-014-046-048-049-054-271000-
EAST SLOPES AND CENTRAL MONTANA

CITY           SKY/WX    TMP DP  RH WIND       PRES   REMARKS
CUT BANK       CLOUDY    38  36  92 E3        29.59S
GREAT FALLS    CLOUDY    37  35  92 SW9       29.59S WCI  30
MALMSTROM AFB  CLOUDY    38  37  97 W7        29.60R
HELENA         CLOUDY    43  31  62 W12       29.62S
AUGUSTA        MOCLDY    37  31  81 W8        29.59S WCI  30
BOWMANS CRNR   MOCLDY    34  31  88 SW7       29.59S WCI  28
CHOTEAU          N/A     39  32  75 NW6       29.61S
FAIRFIELD        N/A     37  34  89 SW5       29.59S
POWER          MOCLDY    36  35  99 W3        29.58S
RAYNESFORD     MOCLDY    35  34  96 CALM      29.59S
ULM            RAIN      40  37  89 S9        29.61R
$$

MTZ011-013-016-021-045-047-050-051-271000-
NORTH CENTRAL MONTANA

CITY           SKY/WX    TMP DP  RH WIND       PRES   REMARKS
HAVRE          CLOUDY    41  39  93 E8        29.59S
LEWISTOWN      LGT RAIN  38  36  92 W5        29.58S
N BAR RANCH    CLOUDY    34  32  93 N3        29.60F
CHINOOK          N/A     43  36  75 E8        29.60S
DENTON         MOCLDY    38  38  98 MISG      29.55F
FORT BENTON      N/A     43  41  93 MISG      29.61R
GEYSER         MOCLDY    38  35  90 W12       29.57F WCI  30
GRASS RANGE    MOCLDY    37  35  94 W8        29.55S WCI  30
JUDITH GAP       N/A     32  31  96 N3        29.57F
STANFORD       MOCLDY    36  34  93 CALM      29.58S
WINIFRED       MOCLDY    39  38  97 W3        29.57S
$$

MTZ017>020-022>027-061-062-271000-
NORTHEAST MONTANA

CITY           SKY/WX    TMP DP  RH WIND       PRES   REMARKS
GLASGOW        PTCLDY    34  21  59 E17       29.65F WCI  23
JORDAN           N/A     35  29  78 E8        29.62F WCI  29
SIDNEY         CLEAR     29  22  75 NE3       29.74S
WOLF POINT     CLEAR     30  22  72 E10       29.71  WCI  21
MALTA          CLOUDY    37  28  70 NE8       29.64S WCI  31
PLENTYWOOD       N/A     28  23  80 E13       29.75F WCI  18
POPLAR           N/A     28  21  74 N5        29.73S
SCOBEY           N/A     29  16  58 E13       29.71F WCI  19
$$

MTZ028>42-056>058-271000-
SOUTHCENTRAL AND SOUTHEAST MONTANA

CITY           SKY/WX    TMP DP  RH WIND       PRES   REMARKS
BAKER          CLEAR     28  23  81 E12       29.68F WCI  18
BILLINGS       CLOUDY    41  38  89 SW7       29.57F
LIVINGSTON     CLOUDY    38  36  92 W7        29.58F
MILES CITY     PTCLDY    36  31  82 E6        29.64F WCI  31
BIG TIMBER     PTCLDY    37  36  93 W6        29.60S
EKALAKA          N/A     30  23  75 E10       29.64  WCI  21
LAUREL           N/A     40  33  76 CALM      29.61R
ROUNDUP          N/A     42  36  79 CALM      29.53F
$$

REGIONAL REPORTS...DAKOTAS

CITY           SKY/WX    TMP DP  RH WIND       PRES   REMARKS
WILLISTON      CLEAR     31  26  82 NE5       29.76S
MINOT          CLEAR     23  20  88 NW8       29.76F WCI  14
DICKINSON      CLEAR     20  19  96 S5        29.71S
BEACH            N/A     25  25 100 SE10      29.73S WCI  15
TIOGA            N/A     21  21 100 E5        29.78S
WATFORD CITY     N/A     27  25  93 CALM      29.75R
BISMARCK       PTCLDY    33  25  72 N5        29.75F
GRAND FORKS    FLURRIES  28  25  88 NE15      29.73F WCI  16
FARGO          MIX PCPN  27  24  89 N13       29.69R WCI  16
BUFFALO SD       N/A     28  24  85 E10       29.61F WCI  19
RAPID CITY     CLEAR     27  24  89 NW3       29.66F
$$

REGIONAL REPORTS...WYOMING/IDAHO/WASHINGTON

CITY           SKY/WX    TMP DP  RH WIND       PRES   REMARKS
GILLETTE       CLOUDY    33  32  96 SE7       29.57F WCI  27
SHERIDAN       FOG       32  31  96 NW5       29.57F VSB 1/2
BUFFALO WY     CLOUDY    34  27  75 CALM      29.55F
CODY           LGT RAIN  37  35  92 N10       29.58S WCI  30
YELLOWSTONE LA   N/A     27  27 100 CALM      29.60
IDAHO FALLS    LGT RAIN  38  36  92 W10       29.62F WCI  31
SALMON         CLOUDY    39  32  75 W3        29.74S
BOISE          PTCLDY    41  37  86 NW12      29.86S
SPOKANE        PTCLDY    39  31  72 SW14      29.74R WCI  31
$$

REGIONAL REPORTS...ALBERTA

CITY           SKY/WX    TMP DP  RH WIND       PRES   REMARKS
EDMONTON       CLOUDY    34  32  93 E6        29.73S WCI  29
CALGARY        CLOUDY    34  32  93 E8        29.65S FOG     WCI  27
LETHBRIDGE     RAIN      37  36  93 NE10      29.63S WCI  30
MEDICINE HAT   CLOUDY    37  36  93 N7        29.63S
WATERTON GATE    N/A     32  30  93 NE5         N/A
MILK RIVER       N/A     37  37 100 CALM        N/A
$$

REGIONAL REPORTS...SASKATCHEWAN

CITY           SKY/WX    TMP DP  RH WIND       PRES   REMARKS
SWIFT CURRENT  MOCLDY    32  23  69 SE16      29.64S WCI  21
REGINA         PTCLDY    28  21  74 SE16      29.80R WCI  17
SASKATOON      CLOUDY    36  21  55 E10       29.82R WCI  28
CYPRESS HILLS    N/A     32  30  93 S9          N/A  WCI  24
VAL MARIE        N/A     32  23  69 SE12        N/A  WCI  23
ROCKGLEN         N/A     28  21  74 SE9         N/A  WCI  20
ASSINIBOIA       N/A     34  32  93 E9          N/A  WCI  26
$$




USA.gov is the U.S. government's official web portal to all federal, state and local government web resources and services.